Location: Oregon Star Party
(44.2935°N, 120.1332°W)
Time: 14:44:52
(UTC-07:00)

Amateur Radio Satellites - All Passes

Search period start: 31 August 2016 14:14
Search period end: 01 September 2016 14:14
Location: Oregon Star Party, 44.2935°N, 120.1332°W

Satellite Date Start Highest point End Downlink Frequencies (MHz)
Time Altitude Azimuth
ITAMSAT 1 31 Aug 14:31:59 14:36:54 45° 69° (ENE) 14:41:49 435.822/435.867
SPROUT 31 Aug 14:32:10 14:35:25 21° 295° (WNW) 14:38:40 437.525
TISAT 1 31 Aug 14:34:27 14:38:40 84° 287° (WNW) 14:42:51 437.305
SWISSCUBE 31 Aug 14:35:07 14:38:49 22° 93° (E) 14:42:29 437.505
CUBEBUG 1 31 Aug 14:37:21 14:38:03 10° 302° (WNW) 14:38:44 437.445
VELOX 1 31 Aug 14:46:33 14:47:29 11° 302° (WNW) 14:48:24 145.980
DX 1 31 Aug 14:47:42 14:49:57 14° 300° (WNW) 14:52:11 434.975-435.025
Oscar 19 31 Aug 14:48:59 14:52:49 21° 268° (W) 14:56:42 437.125/150
BEESAT 31 Aug 14:51:26 14:55:33 28° 95° (E) 14:59:39 436.000
Gurwin Techsat 1B 31 Aug 14:53:43 14:58:39 39° 263° (W) 15:03:38 435.225
O/OREOS (USA 219) 31 Aug 15:31:01 15:32:43 12° 314° (NW) 15:34:26 437.305
AO-7 31 Aug 15:36:29 15:44:51 87° 71° (ENE) 15:53:15 29.400- 29.500
ITUPSAT 1 31 Aug 15:41:25 15:46:14 85° 107° (ESE) 15:51:01 437.325
HORYU 2 31 Aug 15:49:02 15:51:13 14° 60° (ENE) 15:53:24 437.375
MOZHAYETS 4 31 Aug 16:03:09 16:06:53 24° 94° (E) 16:10:36
YUBILEINY 31 Aug 16:08:06 16:15:35 30° 66° (ENE) 16:22:58 435.215
SWISSCUBE 31 Aug 16:12:16 16:16:47 43° 290° (WNW) 16:21:18 437.505
ITAMSAT 1 31 Aug 16:12:25 16:16:34 24° 266° (W) 16:20:44 435.822/435.867
BRITE-PL 31 Aug 16:18:56 16:21:34 14° 57° (ENE) 16:24:17 437.365/2234.400
BEESAT 31 Aug 16:29:05 16:33:21 34° 293° (WNW) 16:37:37 436.000
BEESAT 2 31 Aug 16:38:39 16:41:10 16° 38° (NE) 16:43:41 435.950
BEESAT 3 31 Aug 16:47:06 16:50:35 28° 46° (NE) 16:54:03 437.485
KKS-1 31 Aug 17:01:19 17:05:47 70° 102° (ESE) 17:10:12 437.445
GOMX 1 31 Aug 17:08:57 17:12:38 19° 61° (ENE) 17:16:25 467.674
ITUPSAT 1 31 Aug 17:21:14 17:23:22 13° 302° (WNW) 17:25:31 437.325
HORYU 2 31 Aug 17:22:46 17:27:12 72° 257° (WSW) 17:31:40 437.375
NOAA 18 31 Aug 17:22:58 17:27:24 25° 62° (ENE) 17:31:50 137.9125
Cosmos 2504 31 Aug 17:24:25 17:30:29 28° 67° (ENE) 17:36:27 435.465 / 435.565
STARS 31 Aug 17:24:55 17:29:16 61° 102° (ESE) 17:33:35 437.465
NOAA 15 31 Aug 17:30:52 17:35:40 37° 67° (ENE) 17:40:31 137.62
AO-7 31 Aug 17:32:41 17:38:36 21° 269° (W) 17:44:33 29.400- 29.500
Cubesat XI-IV 31 Aug 17:34:13 17:38:53 32° 66° (ENE) 17:43:34 437.490
CUBESAT XI-V 31 Aug 17:35:02 17:39:09 29° 95° (E) 17:43:15 437.345
MOZHAYETS 4 31 Aug 17:39:56 17:44:07 36° 291° (WNW) 17:48:19
CUTE-I 31 Aug 17:44:19 17:49:13 39° 67° (ENE) 17:54:08 437.470
Cosmos 2491 31 Aug 17:48:40 17:57:02 55° 90° (E) 18:05:29 435.465 / 435.565
BRITE-PL 31 Aug 17:54:06 17:59:08 89° 72° (ENE) 18:04:36 437.365/2234.400
YUBILEINY 31 Aug 18:04:25 18:13:04 66° 268° (W) 18:21:38 435.215
BEESAT 2 31 Aug 18:15:28 18:19:30 77° 237° (WSW) 18:23:29 435.950
BEESAT 3 31 Aug 18:24:42 18:28:15 31° 244° (WSW) 18:31:46 437.485
DOVE 4 31 Aug 18:28:49 18:33:48 45° 70° (ENE) 18:38:51 437.250
LilacSat-2 31 Aug 18:33:35 18:37:24 74° 258° (WSW) 18:41:14 437.200
CINEMA 3 31 Aug 18:38:24 18:41:41 18° 62° (ENE) 18:44:54 145.822/145.860
KKS-1 31 Aug 18:39:31 18:41:48 14° 300° (WNW) 18:44:04 437.445
HO-68 31 Aug 18:41:31 18:47:28 29° 58° (ENE) 18:53:26 435.675
GOMX 1 31 Aug 18:44:56 18:50:06 67° 259° (W) 18:55:34 467.674
PCSat 31 Aug 18:58:16 19:02:40 24° 43° (NE) 19:07:01 145.827
NOAA 18 31 Aug 19:02:22 19:07:44 51° 259° (W) 19:13:08 137.9125
STARS 31 Aug 19:02:36 19:05:08 15° 299° (WNW) 19:07:40 437.465
STRAND 1 31 Aug 19:08:10 19:11:01 15° 90° (E) 19:13:52 437.568
NOAA 15 31 Aug 19:10:54 19:15:29 30° 264° (W) 19:20:08 137.62
SEEDS 31 Aug 19:11:27 19:14:02 16° 64° (ENE) 19:16:37 437.485
CUBESAT XI-V 31 Aug 19:12:20 19:16:31 32° 292° (WNW) 19:20:40 437.345
Cubesat XI-IV 31 Aug 19:13:59 19:18:52 37° 263° (W) 19:23:48 437.490
AIST 1 31 Aug 19:17:00 19:20:22 21° 70° (ENE) 19:23:43
Cosmos 2504 31 Aug 19:17:17 19:24:17 56° 268° (W) 19:31:15 435.465 / 435.565
CUTE-I 31 Aug 19:24:43 19:29:20 30° 265° (W) 19:33:59 437.470
AIST 2 31 Aug 19:28:00 19:31:45 31° 46° (NE) 19:35:30 435.215
AAUSAT CUBESAT 2 31 Aug 19:29:42 19:31:51 14° 63° (ENE) 19:34:02 437.432
BRITE-PL 31 Aug 19:36:31 19:38:28 12° 276° (W) 19:40:27 437.365/2234.400
CANX-2 31 Aug 19:40:42 19:44:46 51° 73° (ENE) 19:48:51 2200.000
COMPASS 1 31 Aug 19:41:10 19:44:24 23° 67° (ENE) 19:47:40 437.405
CUTE 1.7 + AOD 2 31 Aug 19:45:52 19:49:56 51° 73° (ENE) 19:54:01 437.475
Cosmos 2491 31 Aug 19:46:23 19:54:13 36° 291° (WNW) 20:02:10 435.465 / 435.565
UWE-3 31 Aug 19:50:17 19:53:06 17° 64° (ENE) 19:55:53 435.000/436.395/437.385
ZACube-1 31 Aug 19:55:36 19:57:16 12° 61° (ENE) 19:58:56 437.345
CUBEBUG 2 31 Aug 20:01:04 20:05:06 31° 69° (ENE) 20:09:03 437.445
YUBILEINY 31 Aug 20:04:50 20:08:00 12° 289° (WNW) 20:11:10 435.215
DOVE 4 31 Aug 20:07:18 20:11:38 26° 268° (W) 20:16:02 437.250
CINEMA 3 31 Aug 20:13:22 20:18:19 64° 259° (W) 20:23:13 145.822/145.860
HO-68 31 Aug 20:27:35 20:34:42 64° 257° (WSW) 20:41:52 435.675
DELFI C3 31 Aug 20:31:05 20:31:29 10° 60° (ENE) 20:31:54 145.870
PCSat 31 Aug 20:41:08 20:46:32 66° 243° (WSW) 20:51:53 145.827
SEEDS 31 Aug 20:45:19 20:49:20 49° 260° (W) 20:53:24 437.485
STRAND 1 31 Aug 20:45:38 20:50:43 71° 287° (WNW) 20:55:49 437.568
Oscar 11 31 Aug 20:50:52 20:54:54 41° 71° (ENE) 20:58:58 145.826/435.025
AIST 1 31 Aug 20:54:03 20:58:06 37° 269° (W) 21:02:06
AAUSAT CUBESAT 2 31 Aug 21:02:50 21:06:52 57° 260° (W) 21:10:57 437.432
FUNcube-1 31 Aug 21:04:31 21:08:48 55° 73° (ENE) 21:13:00 145.935
AIST 2 31 Aug 21:06:30 21:10:13 32° 244° (WSW) 21:13:56 435.215
COMPASS 1 31 Aug 21:16:05 21:19:48 32° 264° (W) 21:23:33 437.405
CANX-2 31 Aug 21:18:33 21:20:56 15° 270° (W) 21:23:19 2200.000
CUTE 1.7 + AOD 2 31 Aug 21:23:40 21:26:04 15° 270° (W) 21:28:29 437.475
UWE-3 31 Aug 21:24:43 21:29:09 55° 259° (W) 21:33:31 435.000/436.395/437.385
ZACube-1 31 Aug 21:28:34 21:32:59 78° 259° (W) 21:37:20 437.345
HUMSAT D 31 Aug 21:34:38 21:38:04 26° 68° (ENE) 21:41:28 437.325/437.525
PRISM 31 Aug 21:37:03 21:41:08 49° 100° (E) 21:45:12 437.425
CUBEBUG 2 31 Aug 21:37:39 21:41:41 29° 265° (W) 21:45:38 437.445
DELFI C3 31 Aug 22:01:47 22:05:42 77° 257° (WSW) 22:09:41 145.870
Cosmos 2499 31 Aug 22:07:43 22:13:32 27° 67° (ENE) 22:19:23 435.465 / 435.565
UNISAT 6 31 Aug 22:16:55 22:19:22 15° 91° (E) 22:21:50 437.425
O/OREOS (USA 219) 31 Aug 22:17:29 22:21:32 29° 57° (ENE) 22:25:33 437.305
GONETS M04 31 Aug 22:20:10 22:28:38 46° 72° (ENE) 22:37:02
CUBEBUG 1 31 Aug 22:22:33 22:23:55 11° 59° (ENE) 22:25:18 437.445
HO-68 31 Aug 22:22:53 22:23:48 10° 276° (W) 22:24:42 435.675
CUSAT 1 31 Aug 22:23:34 22:25:34 15° 82° (E) 22:27:49 437.405
STRAND 1 31 Aug 22:27:54 22:28:59 11° 305° (NW) 22:30:04 437.568
Oscar 11 31 Aug 22:28:10 22:31:14 19° 268° (W) 22:34:18 145.826/435.025
AUBIESAT-1 31 Aug 22:30:37 22:34:52 37° 64° (ENE) 22:39:03 437.475
VELOX 1 31 Aug 22:32:36 22:34:20 12° 59° (ENE) 22:36:05 145.980
SO-50 31 Aug 22:36:01 22:40:34 41° 117° (ESE) 22:45:05 436.795
M-CUBED/EXP-1 PRIME 31 Aug 22:40:06 22:44:41 54° 67° (ENE) 22:49:14 437.505
FUNcube-1 31 Aug 22:42:52 22:45:21 15° 269° (W) 22:47:49 145.935
ANTELSAT 31 Aug 22:52:33 22:56:30 35° 97° (E) 23:00:23 437.575/2403.000
UKube-1 31 Aug 23:04:28 23:06:37 14° 60° (ENE) 23:08:45 .
50 SAT 31 Aug 23:06:30 23:09:09 20° 67° (ENE) 23:11:48 437.505
HUMSAT D 31 Aug 23:10:01 23:13:36 28° 264° (W) 23:17:11 437.325/437.525
PRISM 31 Aug 23:13:22 23:16:04 17° 297° (WNW) 23:18:46 437.425
AISAT 31 Aug 23:19:20 23:23:23 35° 69° (ENE) 23:27:29 437.250
TIGRISAT 31 Aug 23:21:53 23:26:10 70° 103° (ESE) 23:30:23 435.000
QB50P1 31 Aug 23:28:08 23:29:56 12° 90° (E) 23:31:42 145.935-145.965
ESTCUBE 1 31 Aug 23:30:32 23:35:01 79° 76° (ENE) 23:39:32 437.505/2401.250
POPSAT HIP 1 31 Aug 23:37:57 23:40:32 16° 91° (E) 23:43:06 437.405
JAS-2 31 Aug 23:49:47 23:55:00 21° 90° (E) 00:00:28 435.910
SPROUT 31 Aug 23:50:34 23:54:30 35° 70° (ENE) 23:58:27 437.525
UNISAT 6 31 Aug 23:52:16 23:56:26 51° 288° (WNW) 00:00:33 437.425
CUBEBUG 1 31 Aug 23:55:05 23:59:30 87° 252° (WSW) 00:03:58 437.445
O/OREOS (USA 219) 31 Aug 23:56:50 00:00:56 32° 255° (WSW) 00:05:02 437.305
DUCHIFAT 1 31 Aug 23:59:12 00:02:37 24° 94° (E) 00:05:59 145.980
Cosmos 2499 01 Sep 00:00:13 00:07:06 58° 268° (W) 00:14:07 435.465 / 435.565
CUSAT 1 01 Sep 00:04:02 00:07:03 31° 291° (WNW) 00:10:51 437.405
DANDE 01 Sep 00:04:42 00:07:21 66° 98° (E) 00:10:29 436.750
AUBIESAT-1 01 Sep 00:05:23 00:09:19 27° 260° (W) 00:13:14 437.475
VELOX 1 01 Sep 00:05:42 00:10:09 82° 259° (WSW) 00:14:39 145.980
DX 1 01 Sep 00:06:35 00:10:56 71° 74° (ENE) 00:15:19 434.975-435.025
QB50P2 01 Sep 00:08:36 00:12:31 36° 97° (E) 00:16:23 145.880/145.840
POLYITAN 1 01 Sep 00:11:05 00:15:00 36° 98° (E) 00:18:52 437.675
NANOSAT C BR1 01 Sep 00:15:05 00:19:01 37° 98° (E) 00:22:54 145.865
M-CUBED/EXP-1 PRIME 01 Sep 00:16:07 00:19:26 19° 263° (W) 00:22:43 437.505
SO-50 01 Sep 00:16:48 00:21:09 32° 316° (NW) 00:25:27 436.795
GONETS M04 01 Sep 00:17:14 00:25:23 43° 274° (W) 00:33:29
RS-15 01 Sep 00:28:56 00:39:46 50° 110° (ESE) 00:51:08 29.354- 29.394
ANTELSAT 01 Sep 00:29:42 00:33:02 22° 294° (WNW) 00:36:20 437.575/2403.000
BUGSAT 1 01 Sep 00:34:23 00:37:46 24° 95° (E) 00:41:04 437.445
UKube-1 01 Sep 00:37:48 00:42:06 69° 258° (WSW) 00:46:27 .
50 SAT 01 Sep 00:39:26 00:42:33 28° 264° (W) 00:45:42 437.505
AISAT 01 Sep 00:56:18 00:59:56 24° 266° (W) 01:03:35 437.250
TIGRISAT 01 Sep 01:00:27 01:02:17 13° 300° (WNW) 01:04:07 435.000
QB50P1 01 Sep 01:01:56 01:06:07 61° 286° (WNW) 01:10:14 145.935-145.965
PHONESAT 2.4 01 Sep 01:05:08 01:07:47 28° 166° (SSE) 01:10:25 2401.200-2431.200
ESTCUBE 1 01 Sep 01:11:22 01:12:24 11° 272° (W) 01:13:26 437.505/2401.250
POPSAT HIP 1 01 Sep 01:12:31 01:16:36 48° 288° (WNW) 01:20:37 437.405
ITUPSAT 1 01 Sep 01:14:19 01:17:03 15° 60° (ENE) 01:19:48 437.325
Oscar 19 01 Sep 01:19:19 01:22:32 16° 90° (E) 01:25:43 437.125/150
TISAT 1 01 Sep 01:27:06 01:31:22 87° 70° (ENE) 01:35:38 437.305
SPROUT 01 Sep 01:27:08 01:30:31 22° 266° (W) 01:33:55 437.525
JAS-2 01 Sep 01:33:33 01:40:33 82° 286° (WNW) 01:48:14 435.910
DUCHIFAT 1 01 Sep 01:34:37 01:38:20 31° 291° (WNW) 01:42:01 145.980
SWISSCUBE 01 Sep 01:42:57 01:47:05 31° 67° (ENE) 01:51:14 437.505
QB50P2 01 Sep 01:44:52 01:48:06 22° 295° (WNW) 01:51:19 145.880/145.840
DX 1 01 Sep 01:46:05 01:47:37 12° 271° (W) 01:49:09 434.975-435.025
POLYITAN 1 01 Sep 01:47:23 01:50:35 21° 295° (WNW) 01:53:46 437.675
NANOSAT C BR1 01 Sep 01:51:22 01:54:30 21° 295° (WNW) 01:57:38 145.865
BEESAT 01 Sep 01:59:11 02:03:35 39° 68° (ENE) 02:08:00 436.000
BUGSAT 1 01 Sep 02:09:32 02:13:09 30° 292° (WNW) 02:16:41 437.445
RS-15 01 Sep 02:40:35 02:52:05 59° 315° (NW) 03:04:12 29.354- 29.394
PHONESAT 2.4 01 Sep 02:40:57 02:43:48 39° 183° (S) 02:46:37 2401.200-2431.200
ITAMSAT 1 01 Sep 02:44:44 02:47:18 14° 89° (E) 02:49:52 435.822/435.867
ITUPSAT 1 01 Sep 02:49:35 02:54:20 70° 258° (WSW) 02:59:06 437.325
Oscar 19 01 Sep 02:57:09 03:02:20 67° 287° (WNW) 03:07:28 437.125/150
MOZHAYETS 4 01 Sep 03:06:32 03:10:23 28° 67° (ENE) 03:14:16
Gurwin Techsat 1B 01 Sep 03:07:42 03:13:03 74° 103° (ESE) 03:18:21 435.225
JAS-2 01 Sep 03:20:14 03:24:44 19° 303° (WNW) 03:29:29 435.910
SWISSCUBE 01 Sep 03:20:37 03:24:50 31° 264° (W) 03:29:04 437.505
AO-7 01 Sep 03:37:11 03:43:50 26° 93° (E) 03:50:24 29.400- 29.500
BEESAT 01 Sep 03:37:38 03:41:29 24° 266° (W) 03:45:21 436.000
Cosmos 2491 01 Sep 03:57:04 04:04:36 30° 66° (ENE) 04:12:05 435.465 / 435.565
KKS-1 01 Sep 04:00:31 04:04:59 77° 76° (ENE) 04:09:30 437.445
AO-85 01 Sep 04:14:37 04:19:33 41° 117° (ESE) 04:24:14 145.980
PHONESAT 2.4 01 Sep 04:17:23 04:19:45 21° 199° (SSW) 04:22:07 2401.200-2431.200
ITAMSAT 1 01 Sep 04:22:10 04:27:22 79° 286° (WNW) 04:32:32 435.822/435.867
STARS 01 Sep 04:22:39 04:27:03 66° 73° (ENE) 04:31:28 437.465
CUBESAT XI-V 01 Sep 04:39:47 04:43:54 34° 69° (ENE) 04:48:06 437.345
Oscar 19 01 Sep 04:39:54 04:40:40 10° 306° (NW) 04:41:27 437.125/150
MOZHAYETS 4 01 Sep 04:43:25 04:47:28 31° 264° (W) 04:51:33
Gurwin Techsat 1B 01 Sep 04:49:01 04:52:24 17° 301° (WNW) 04:55:46 435.225
RS-15 01 Sep 04:57:46 05:07:56 30° 347° (NNW) 05:18:24 29.354- 29.394
YUBILEINY 01 Sep 05:11:43 05:19:08 32° 83° (E) 05:26:33 435.215
HORYU 2 01 Sep 05:12:55 05:16:02 19° 93° (E) 05:19:09 437.375
SO-50 01 Sep 05:26:48 05:28:55 13° 29° (NNE) 05:31:01 436.795
AO-7 01 Sep 05:29:01 05:37:19 74° 292° (WNW) 05:45:34 29.400- 29.500
KKS-1 01 Sep 05:40:49 05:42:06 11° 271° (W) 05:43:23 437.445
NOAA 15 01 Sep 05:46:24 05:48:14 12° 87° (E) 05:50:05 137.62
Cosmos 2491 01 Sep 05:53:24 06:02:08 67° 268° (W) 06:10:51 435.465 / 435.565
AO-85 01 Sep 05:55:21 06:00:06 35° 314° (NW) 06:04:35 145.980
BRITE-PL 01 Sep 05:57:38 06:02:36 30° 93° (E) 06:07:25 437.365/2234.400
CUTE-I 01 Sep 06:01:21 06:03:42 13° 88° (E) 06:06:04 437.470
STARS 01 Sep 06:01:49 06:03:50 13° 270° (W) 06:05:53 437.465
ITAMSAT 1 01 Sep 06:04:04 06:05:58 12° 305° (NW) 06:07:54 435.822/435.867
Cosmos 2504 01 Sep 06:05:33 06:11:39 24° 82° (E) 06:17:28 435.465 / 435.565
LilacSat-2 01 Sep 06:07:59 06:08:36 10° 89° (E) 06:09:13 437.200
CUBESAT XI-V 01 Sep 06:17:25 06:21:19 27° 266° (W) 06:25:16 437.345
STRAND 1 01 Sep 06:25:06 06:29:17 26° 64° (ENE) 06:33:29 437.568
DOVE 4 01 Sep 06:29:44 06:30:26 10° 84° (E) 06:31:08 437.250
ISS 01 Sep 06:41:22 06:43:41 18° 135° (SE) 06:46:01 145.825
GOMX 1 01 Sep 06:45:42 06:50:38 37° 95° (E) 06:55:17 467.674
HORYU 2 01 Sep 06:48:36 06:52:49 44° 290° (WNW) 06:57:00 437.375
SO-50 01 Sep 07:05:52 07:10:27 56° 51° (NE) 07:14:53 436.795
YUBILEINY 01 Sep 07:06:40 07:15:22 61° 283° (WNW) 07:24:08 435.215
RS-15 01 Sep 07:14:32 07:25:22 34° 22° (NNE) 07:36:13 29.354- 29.394
NOAA 18 01 Sep 07:22:34 07:27:59 60° 102° (ESE) 07:33:22 137.9125
AO-7 01 Sep 07:23:19 07:28:45 20° 314° (NW) 07:34:11 29.400- 29.500
NOAA 15 01 Sep 07:23:24 07:28:45 88° 101° (ESE) 07:34:05 137.62
Cubesat XI-IV 01 Sep 07:28:54 07:34:15 79° 104° (ESE) 07:39:34 437.490
BRITE-PL 01 Sep 07:35:49 07:41:08 42° 292° (WNW) 07:46:18 437.365/2234.400
CUTE-I 01 Sep 07:39:05 07:44:26 85° 287° (WNW) 07:49:45 437.470
LilacSat-2 01 Sep 07:39:33 07:43:17 59° 286° (WNW) 07:46:59 437.200
AIST 1 01 Sep 07:50:16 07:51:36 11° 82° (E) 07:52:56
Cosmos 2491 01 Sep 07:53:42 07:57:08 13° 288° (WNW) 08:00:36 435.465 / 435.565
HO-68 01 Sep 07:54:17 07:59:52 24° 92° (E) 08:05:23 435.675
Cosmos 2504 01 Sep 07:56:03 08:04:21 73° 280° (W) 08:12:04 435.465 / 435.565
STRAND 1 01 Sep 08:03:26 08:08:15 42° 262° (W) 08:13:06 437.568
DOVE 4 01 Sep 08:03:56 08:08:57 90° 265° (W) 08:13:37 437.250
CINEMA 3 01 Sep 08:07:21 08:11:05 26° 94° (E) 08:14:42 145.822/145.860
BEESAT 2 01 Sep 08:11:07 08:12:36 12° 109° (ESE) 08:14:06 435.950
BEESAT 3 01 Sep 08:16:32 08:19:48 26° 115° (ESE) 08:23:07 437.485
ISS 01 Sep 08:16:35 08:19:51 67° 332° (NNW) 08:23:08 145.825
GOMX 1 01 Sep 08:23:54 08:28:35 31° 294° (WNW) 08:33:01 467.674
PRISM 01 Sep 08:27:47 08:31:40 43° 71° (ENE) 08:35:37 437.425
SEEDS 01 Sep 08:27:50 08:31:15 23° 94° (E) 08:34:39 437.485
AAUSAT CUBESAT 2 01 Sep 08:44:06 08:47:08 19° 93° (E) 08:50:09 437.432
SO-50 01 Sep 08:47:19 08:50:29 19° 249° (WSW) 08:53:36 436.795
CUSAT 1 01 Sep 08:50:33 08:56:24 29° 69° (ENE) 09:02:57 437.405
DANDE 01 Sep 08:56:46 08:59:05 12° 64° (ENE) 09:01:34 436.750
COMPASS 1 01 Sep 08:56:52 09:00:41 33° 97° (E) 09:04:29 437.405
CANX-2 01 Sep 08:59:33 09:03:49 85° 101° (E) 09:08:05 2200.000
NOAA 18 01 Sep 09:04:08 09:08:13 22° 300° (WNW) 09:12:16 137.9125
CUTE 1.7 + AOD 2 01 Sep 09:04:35 09:08:52 84° 105° (ESE) 09:13:07 437.475
NOAA 15 01 Sep 09:04:57 09:07:47 15° 303° (WNW) 09:10:38 137.62
YUBILEINY 01 Sep 09:10:21 09:14:22 14° 307° (NW) 09:18:24 435.215
Cubesat XI-IV 01 Sep 09:10:28 09:13:40 16° 302° (WNW) 09:16:52 437.490
UWE-3 01 Sep 09:13:14 09:16:38 24° 94° (E) 09:20:00 435.000/436.395/437.385
ZACube-1 01 Sep 09:16:20 09:19:03 17° 92° (E) 09:21:45 437.345
UNISAT 6 01 Sep 09:17:08 09:20:14 18° 64° (ENE) 09:23:18 437.425
CUTE-I 01 Sep 09:21:12 09:23:40 13° 304° (NW) 09:26:09 437.470
AIST 1 01 Sep 09:24:12 09:28:33 69° 279° (W) 09:32:57
CUBEBUG 2 01 Sep 09:26:19 09:30:26 50° 99° (E) 09:34:27 437.445
RS-15 01 Sep 09:27:59 09:40:26 74° 51° (NE) 09:52:39 29.354- 29.394
DELFI C3 01 Sep 09:39:28 09:41:08 12° 90° (E) 09:42:46 145.870
HO-68 01 Sep 09:41:02 09:48:10 70° 291° (WNW) 09:55:15 435.675
DOVE 4 01 Sep 09:43:45 09:45:46 13° 303° (WNW) 09:47:46 437.250
CINEMA 3 01 Sep 09:44:21 09:48:14 30° 292° (WNW) 09:51:58 145.822/145.860
PCSat 01 Sep 09:44:47 09:46:46 12° 102° (ESE) 09:48:47 145.827
BEESAT 2 01 Sep 09:45:56 09:49:52 69° 306° (NW) 09:53:51 435.950
ANTELSAT 01 Sep 09:52:32 09:56:46 39° 70° (ENE) 10:00:55 437.575/2403.000
BEESAT 3 01 Sep 09:53:49 09:57:22 32° 313° (NW) 10:00:58 437.485
ISS 01 Sep 09:54:00 09:56:45 24° 351° (N) 09:59:30 145.825
Cosmos 2504 01 Sep 09:54:49 09:59:06 15° 301° (WNW) 10:03:16 435.465 / 435.565
SEEDS 01 Sep 10:03:12 10:06:59 32° 291° (WNW) 10:10:45 437.485
PRISM 01 Sep 10:04:28 10:07:12 17° 268° (W) 10:09:57 437.425
Oscar 11 01 Sep 10:12:04 10:16:23 70° 101° (E) 10:20:42 145.826/435.025
AAUSAT CUBESAT 2 01 Sep 10:18:52 10:22:45 38° 289° (WNW) 10:26:38 437.432
TIGRISAT 01 Sep 10:21:33 10:26:06 74° 75° (ENE) 10:30:33 435.000
QB50P1 01 Sep 10:22:27 10:24:25 13° 61° (ENE) 10:26:23 145.935-145.965
FUNcube-1 01 Sep 10:26:54 10:31:03 86° 283° (WNW) 10:35:11 145.935
CUSAT 1 01 Sep 10:31:55 10:38:43 65° 264° (W) 10:46:32 437.405
POPSAT HIP 1 01 Sep 10:32:15 10:34:52 16° 63° (ENE) 10:37:28 437.405
COMPASS 1 01 Sep 10:32:45 10:36:04 23° 293° (WNW) 10:39:24 437.405
DANDE 01 Sep 10:36:36 10:42:27 68° 78° (ENE) 10:49:55 436.750
CANX-2 01 Sep 10:38:06 10:39:01 11° 300° (WNW) 10:39:57 2200.000
CUTE 1.7 + AOD 2 01 Sep 10:43:02 10:44:03 11° 300° (WNW) 10:45:04 437.475
Cosmos 2499 01 Sep 10:47:42 10:53:12 21° 81° (E) 10:58:27 435.465 / 435.565
UWE-3 01 Sep 10:49:29 10:53:08 30° 291° (WNW) 10:56:44 435.000/436.395/437.385
HUMSAT D 01 Sep 10:51:07 10:54:56 37° 98° (E) 10:58:45 437.325/437.525
ZACube-1 01 Sep 10:51:38 10:55:34 43° 289° (WNW) 10:59:29 437.345
UNISAT 6 01 Sep 10:52:10 10:56:36 50° 260° (W) 11:00:58 437.425
DUCHIFAT 1 01 Sep 10:52:39 10:55:59 23° 66° (ENE) 10:59:19 145.980
QB50P2 01 Sep 11:02:34 11:06:25 34° 69° (ENE) 11:10:17 145.880/145.840
CUBEBUG 2 01 Sep 11:04:07 11:06:39 16° 297° (WNW) 11:09:09 437.445
AIST 2 01 Sep 11:05:02 11:08:45 34° 117° (ESE) 11:12:30 435.215
POLYITAN 1 01 Sep 11:05:03 11:08:55 34° 69° (ENE) 11:12:46 437.675
AO-85 01 Sep 11:06:51 11:07:45 11° 26° (NNE) 11:08:40 145.980
NANOSAT C BR1 01 Sep 11:08:32 11:12:24 35° 69° (ENE) 11:16:16 145.865
DELFI C3 01 Sep 11:12:22 11:16:19 57° 287° (WNW) 11:20:16 145.870
ESTCUBE 1 01 Sep 11:22:44 11:25:22 15° 90° (E) 11:27:59 437.505/2401.250
GONETS M04 01 Sep 11:23:04 11:31:22 50° 88° (E) 11:39:44
PCSat 01 Sep 11:23:53 11:29:18 84° 120° (ESE) 11:34:46 145.827
BUGSAT 1 01 Sep 11:25:36 11:28:55 23° 66° (ENE) 11:32:14 437.445
BEESAT 2 01 Sep 11:26:55 11:28:27 12° 326° (NNW) 11:29:59 435.950
ANTELSAT 01 Sep 11:30:05 11:33:36 22° 266° (W) 11:37:04 437.575/2403.000
HO-68 01 Sep 11:30:41 11:34:39 16° 311° (NW) 11:38:35 435.675
ISS 01 Sep 11:31:06 11:33:55 25° 11° (NNE) 11:36:45 145.825
RS-15 01 Sep 11:41:20 11:52:02 37° 255° (WSW) 12:02:35 29.354- 29.394
CUBEBUG 1 01 Sep 11:43:20 11:46:03 16° 91° (E) 11:48:43 437.445
AUBIESAT-1 01 Sep 11:43:27 11:45:57 16° 96° (E) 11:48:19 437.475
JAS-2 01 Sep 11:48:25 11:53:31 50° 69° (ENE) 11:59:07 435.910
Oscar 11 01 Sep 11:49:58 11:51:59 13° 299° (WNW) 11:53:58 145.826/435.025
M-CUBED/EXP-1 PRIME 01 Sep 11:53:17 11:56:40 26° 100° (E) 11:59:49 437.505
VELOX 1 01 Sep 11:55:17 11:58:12 17° 92° (E) 12:01:05 145.980
QB50P1 01 Sep 11:55:23 11:59:39 69° 259° (W) 12:03:55 145.935-145.965
DX 1 01 Sep 11:55:47 11:56:51 11° 89° (E) 11:57:55 434.975-435.025
TIGRISAT 01 Sep 12:01:41 12:03:15 12° 271° (W) 12:04:50 435.000
POPSAT HIP 1 01 Sep 12:06:02 12:10:14 53° 260° (W) 12:14:26 437.405
50 SAT 01 Sep 12:06:04 12:08:44 19° 94° (E) 12:11:25 437.505
CUSAT 1 01 Sep 12:17:08 12:19:47 12° 279° (W) 12:22:33 437.405
DANDE 01 Sep 12:20:21 12:24:59 23° 270° (W) 12:30:25 436.750
UKube-1 01 Sep 12:24:16 12:27:10 17° 92° (E) 12:30:03 .
HUMSAT D 01 Sep 12:27:20 12:30:19 20° 294° (WNW) 12:33:20 437.325/437.525
DUCHIFAT 1 01 Sep 12:27:36 12:31:30 35° 263° (W) 12:35:24 145.980
O/OREOS (USA 219) 01 Sep 12:31:58 12:35:30 23° 102° (ESE) 12:39:05 437.305
Oscar 19 01 Sep 12:37:14 12:41:37 29° 65° (ENE) 12:46:02 437.125/150
Cosmos 2499 01 Sep 12:37:34 12:45:33 77° 279° (W) 12:52:59 435.465 / 435.565
QB50P2 01 Sep 12:38:52 12:42:17 23° 266° (W) 12:45:42 145.880/145.840
POLYITAN 1 01 Sep 12:41:23 12:44:46 23° 266° (W) 12:48:11 437.675
AIST 2 01 Sep 12:43:40 12:47:15 28° 315° (NW) 12:50:54 435.215
AISAT 01 Sep 12:43:45 12:48:10 56° 101° (E) 12:52:31 437.250
NANOSAT C BR1 01 Sep 12:44:51 12:48:12 22° 266° (W) 12:51:33 145.865
AO-85 01 Sep 12:45:11 12:49:24 47° 50° (NE) 12:53:17 145.980
AO-7 01 Sep 12:52:24 12:54:43 11° 37° (NE) 12:57:01 29.400- 29.500
Gurwin Techsat 1B 01 Sep 12:52:32 12:56:18 20° 61° (ENE) 13:00:06 435.225
ESTCUBE 1 01 Sep 12:58:04 13:02:33 58° 287° (WNW) 13:07:00 437.505/2401.250
BUGSAT 1 01 Sep 13:00:11 13:04:06 35° 263° (W) 13:08:01 437.445
ISS 01 Sep 13:07:27 13:10:45 82° 30° (NNE) 13:14:02 145.825
PCSat 01 Sep 13:09:26 13:13:24 20° 320° (NW) 13:17:23 145.827
SPROUT 01 Sep 13:10:17 13:14:30 54° 100° (E) 13:18:39 437.525
TISAT 1 01 Sep 13:11:31 13:13:04 12° 89° (E) 13:14:37 437.305
AUBIESAT-1 01 Sep 13:16:58 13:20:39 39° 296° (WNW) 13:24:05 437.475
CUBEBUG 1 01 Sep 13:18:19 13:22:39 53° 288° (WNW) 13:26:56 437.445
GONETS M04 01 Sep 13:20:16 13:28:21 40° 290° (WNW) 13:36:33
M-CUBED/EXP-1 PRIME 01 Sep 13:27:47 13:31:08 26° 299° (WNW) 13:34:16 437.505
DX 1 01 Sep 13:29:11 13:33:34 76° 286° (WNW) 13:37:56 434.975-435.025
VELOX 1 01 Sep 13:30:37 13:34:57 50° 288° (WNW) 13:39:14 145.980
JAS-2 01 Sep 13:34:58 13:39:03 22° 270° (W) 13:43:25 435.910
50 SAT 01 Sep 13:39:08 13:42:21 30° 290° (WNW) 13:45:35 437.505
UKube-1 01 Sep 13:59:18 14:03:27 46° 289° (WNW) 14:07:35 .
ITAMSAT 1 01 Sep 14:03:32 14:07:47 26° 64° (ENE) 14:12:02 435.822/435.867
